SL-16 DEB, 28042

Orbit data source: Space-Track

SL-16 DEB, 28042 is space debris in LEO originally from a launch on Fri, 25 Dec 1992 UTC launched from the Tyuratam Missile And Space Complex (TTMTR). Debris objects in space refer to the collection of defunct objects orbiting the Earth. Examples of debris include non-operational satellites, rocket bodies, and fragments generated from explosions, collisions, or faulty payload assembly.

Loading next visibility...
Identifier
28042, 1992-093JP
Orbit
LEO
Country
Flag of CISCIS
Related business
Manufacturer
Unknown
Mission
Spacecraft
Bus & Motor
Unknown
Mass
Unknown
Launch date (UTC)
1992-12-25 (33 years ago)
Launch vehicle
Unknown
Launch site
Tyuratam Missile And Space Complex (TTMTR)
Object type
Payload
Rocket body
Debris
Shape & HBR
Unknown shape, 0.1 m
Radar Cross Section
Small (<0.1 m²)

Expand to show TLE details & history
Last TLE update: 12 hours ago

TLE from 12 hours ago
0 SL-16 DEB
1 28042U 92093JP  26133.19599615  .00000523  00000-0  29347-3 0  9997
2 28042  70.8731  61.0570 0070353 163.3031 318.9076 14.14009712507902
Epoch: 2026-05-13T04:42Z
TLE epoch observation values (Epoch: 2026-05-13T04:42:14.067Z)
Latitude
53.63013°
Longitude
-88.39267°
Altitude
815.774 km
Speed
7.47 km/s
True Right ascension
14h 12m 30s
True Declination
53° 28' 02"
Sunlit
Object was in daylight at epoch
Visualization orbit readout
Latitude
Unknown
Longitude
Unknown
Altitude
Unknown
Speed
Unknown
Apparent Right ascension
Unknown
Apparent Declination
Unknown
Sunlit
N/A
Visualization observer readout
Local Sidereal Time
00:50:29
Azimuth
Unknown
Elevation
Unknown
Doppler factor
Unknown
Orbital elements
Apogee altitude
894.428 km
Perigee altitude
792.814 km
Semi-major axis
7,221.758 km
Eccentricity
0.00704
Inclination
70.8731°
RAAN
61.057°
Arg. of periapsis
163.3031°
True anomaly
318.37419°
Mean anomaly
318.9076°
Eccentric anomaly
318.64125°
Mean motion
3.53654 °/min
Orbital period
101.79 mins
BSTAR
0.00029347
Loading maneuver chart data...
Computing Atmospheric mass density...
Loading historical data...
Loading historical data...
Loading historical data...
Loading historical data...
Loading historical data...
Loading historical data...
Loading historical data...

Documentation

Showing up to 5 results
|